Location: Greenhawk Observatory
(37.3417°N, 122.0298°W)
Time: 23:33:43
(UTC-07:00)

Daily predictions for brighter satellites

Satellite Brightness Start Highest point End
(mag) Time Altitude Azimuth Time Altitude Azimuth Time Altitude Azimuth
Cosmos 2278 Rocket 3.6 20:40:48 10° SE 20:44:26 18° E 20:48:04 10° ENE
Resurs 01 Rocket 3.5 20:40:35 10° SSW 20:44:32 33° W 20:48:31 10° NNW
Cosmos 1844 4.5 20:43:32 10° SSE 20:48:30 31° ESE 20:53:31 10° NE
ERS-1 Rocket 3.7 20:44:10 10° SE 20:48:45 37° ENE 20:53:21 10° N
Cosmos 1844 Rocket 3.0 20:44:19 10° S 20:49:37 43° ESE 20:54:56 10° NE
Cosmos 1452 Rocket 4.5 20:49:52 10° SSE 20:54:10 26° E 20:58:28 10° NE
CZ-2D R/B 3.7 20:53:27 10° S 20:57:13 65° W 21:01:01 10° NNW
FENGYUN 3A 3.9 20:55:18 10° S 21:00:41 74° WSW 21:06:05 10° NNW
BREEZE-M DEB (TANK) 1.9 21:02:32 10° NW 21:04:30 64° NE 21:07:23 12° ESE
Coronas F rocket 1.3 21:02:10 10° S 21:04:48 79° W 21:07:27 10° N
Meteor 2-10 Rocket 3.8 21:03:07 10° N 21:08:57 83° E 21:14:36 10° S
Cosmos 1356 Rocket 3.8 21:08:59 10° SSW 21:13:10 68° W 21:17:28 10° N
Cosmos 1340 Rocket 4.5 21:13:15 10° SW 21:16:57 37° WNW 21:20:43 10° N
SL-08 ROCKET BODY 4.4 21:11:53 10° S 21:17:55 85° E 21:23:54 10° N
Cosmos 1606 3.4 21:19:41 10° N 21:23:21 36° E 21:25:47 18° SE
Cosmos 1908 Rocket 3.8 21:21:33 10° SSE 21:25:47 49° E 21:30:04 10° NNE
Cosmos 1782 2.8 21:22:57 10° N 21:27:00 75° E 21:30:42 12° SSE
Meteor 1-27 Rocket 4.0 21:22:05 10° N 21:27:29 49° ENE 21:31:46 16° SSE
Cosmos 1892 4.0 21:24:01 10° SSW 21:27:40 42° W 21:31:21 10° N
ALOS 4.0 21:24:00 10° SSW 21:28:11 32° W 21:32:22 10° NNW
SJ-11-01 4.3 21:23:43 10° SSE 21:28:29 86° WSW 21:33:15 10° NNW
Cosmos 1733 Rocket 3.6 21:24:24 10° SSW 21:28:45 62° W 21:33:07 10° N
H-2A R/B 1.9 21:28:12 10° SW 21:29:11 13° SSW 21:29:11 13° SSW
Cosmos 676 Rocket 4.4 21:26:15 10° N 21:31:16 48° ENE 21:34:45 19° SE
deb Chang Zheng 4 3.5 21:26:58 10° NNE 21:31:22 71° ESE 21:35:47 10° S
Cosmos 1378 Rocket 4.1 21:27:28 10° N 21:31:30 38° E 21:33:55 21° SE
Cosmos 2056 Rocket 4.4 21:27:56 10° SW 21:32:58 52° WNW 21:37:59 10° N
Cosmos 2084 3.1 21:29:11 10° SSW 21:32:59 58° ESE 21:36:45 10° NE
Centaur D-1A AC-32 3.8 21:30:10 10° SW 21:33:25 16° S 21:34:25 15° SSE
Cosmos 1939 Rocket 2.7 21:30:37 14° SSE 21:33:49 80° ENE 21:37:45 10° N
Cosmos 1174 4.2 21:31:47 10° N 21:34:42 32° NE 21:35:46 24° E
COS B Rocket 3.4 21:33:53 10° NNE 21:37:52 51° E 21:39:58 22° SSE
ISS -3.5 21:34:38 10° SW 21:37:52 69° SE 21:41:06 10° NE
CENTAUR R/B 3.6 21:30:25 10° NW 21:38:12 58° WSW 21:46:17 10° SSE
SL-27 R/B 2.9 21:36:59 10° NNW 21:40:36 62° WSW 21:43:11 17° S
Cosmos 2154 Rocket 3.9 21:38:09 10° S 21:44:21 77° E 21:50:33 10° N
Atlas Centaur 2 2.2 21:42:46 10° WSW 21:45:44 25° S 21:46:18 24° S
Cosmos 1238 Rocket 2.9 21:43:50 10° N 21:47:01 45° E 21:48:12 32° SE
SPOT 5 3.1 21:45:33 20° SSE 21:49:09 68° ENE 21:54:29 10° N
Terra 3.9 21:47:55 11° E 21:49:09 12° ENE 21:51:07 10° NE
CZ-3A R/B 4.3 21:36:17 10° W 21:50:27 27° SW 21:53:31 17° S
MetOp-B 4.3 21:48:36 23° SE 21:51:50 59° ENE 21:57:05 10° N
COSMOS 2487 3.1 21:50:57 10° N 21:54:23 41° ENE 21:55:09 36° ESE
UNK 4.5 21:48:56 10° NNE 21:55:04 60° ESE 22:00:11 14° S
Nimbus 7 Rocket 4.5 21:49:35 10° NNE 21:55:32 84° WNW 22:01:32 10° SSW
H-2A R/B 2.2 21:52:36 18° S 21:55:42 70° WSW 21:59:57 10° NNW
PSLV R/B 4.1 21:57:34 10° W 22:00:48 37° SSW 22:01:18 35° S
ERBS 4.3 21:58:29 10° WNW 22:01:11 21° WSW 22:02:34 17° SSW
APEX 3.5 22:05:23 44° SE 22:05:58 47° ESE 22:10:28 10° NNE
GPS 2-05 Rocket1 2.9 22:03:00 10° WSW 22:06:38 57° S 22:06:52 55° SSE
Envisat 3.5 22:03:22 15° S 22:07:24 55° W 22:12:23 10° NNW
ARGOS 3.5 22:05:27 32° SE 22:07:35 49° ENE 22:12:44 10° N
ATLAS 5 CENTAUR R/B 3.7 22:05:55 10° NW 22:11:26 35° WSW 22:16:08 15° S
Cosmos 2366 rocket 4.4 22:11:33 32° SE 22:13:41 42° E 22:19:34 10° NNE
CZ-3C R/B 3.8 21:56:19 10° WSW 22:14:54 25° SSW 22:17:40 22° S
YAOGAN 6 2.4 22:15:44 61° S 22:16:18 85° WSW 22:19:50 10° NNW
Cosmos 1825 3.0 22:14:23 17° SSW 22:17:06 49° W 22:20:50 10° N
Cosmos 1408 3.5 22:15:48 18° SSW 22:18:12 46° W 22:21:45 10° N
Cosmos 1420 Rocket 3.9 22:13:51 14° SSW 22:18:26 85° ESE 22:23:40 10° NNE
OAO 3 Rocket 3.9 22:14:08 10° SW 22:17:54 34° S 22:17:54 34° S
Okean 2 Rocket 3.1 22:20:08 29° SSW 22:22:20 77° W 22:26:46 10° N
Cosmos 1242 Rocket 2.4 22:21:53 10° N 22:25:35 80° E 22:25:38 80° ESE
H-2A R/B 2.8 22:24:54 34° E 22:26:01 37° ENE 22:30:54 10° N
Cosmos 2278 Rocket 2.8 22:22:24 10° SW 22:27:57 57° WNW 22:33:34 10° NNE
Cosmos 614 Rocket 4.1 22:24:27 10° N 22:29:26 53° ENE 22:30:21 47° ESE
Cosmos 1833 Rocket 3.6 22:25:22 10° N 22:30:25 33° ENE 22:31:40 30° E
OAO 1 Rocket 4.5 22:25:29 10° WSW 22:30:37 52° SSE 22:30:56 51° SSE
Meteor 1-14 Rocket 4.1 22:28:35 37° S 22:30:55 74° E 22:36:31 10° NNE
Okean 3 4.3 22:31:18 10° NNW 22:35:25 46° W 22:36:51 32° SW
Cosmos 1140 Rocket 3.4 22:32:18 10° NNW 22:37:27 81° WSW 22:38:44 52° S
Cosmos 2218 Rocket 3.9 22:37:00 35° S 22:39:54 81° E 22:46:20 10° N
Cosmos 1812 4.5 22:36:41 10° NNE 22:38:47 22° NE 22:38:47 22° NE
DELTA 2 DEB (DPAF) 4.3 22:40:47 56° E 22:40:52 56° ENE 22:45:16 10° N
SPOT 1/Viking Rocket 3.7 22:39:37 43° S 22:41:17 70° WSW 22:46:30 10° NNW
CZ-4 R/B 3.7 22:39:31 10° NNE 22:44:13 83° WNW 22:45:17 53° SSW
SL-08 R/B 4.5 22:46:26 37° S 22:49:16 88° W 22:55:46 10° N
CZ-4B R/B 4.0 22:44:36 10° N 22:49:26 54° WNW 22:51:58 26° SW
Cosmos 2082 Rocket 2.3 22:44:18 10° NNW 22:49:58 61° ENE 22:50:49 54° ESE
CARTOSAT-1 3.9 22:55:56 54° NE 22:55:56 54° NE 22:59:41 10° N
Cosmos 1975 Rocket 4.4 22:52:10 10° NNW 22:56:01 32° W 22:57:10 28° WSW
CZ-4C R/B 3.7 22:58:14 59° N 22:58:14 59° N 23:01:34 10° NNW
USA 234 3.1 22:51:13 10° NE 22:57:47 75° SE 23:04:17 10° SW
Cosmos 1727 Rocket 3.9 22:51:51 10° N 22:58:02 74° E 22:59:09 59° SE
Cosmos 2297 4.2 22:57:51 18° SW 23:01:59 59° WNW 23:07:40 10° NNE
DNEPR-1 R/B 4.0 23:01:39 10° NW 23:06:35 60° WSW 23:06:35 60° WSW
Timation 1 Rocket 4.2 23:07:59 70° SSE 23:08:33 76° ESE 23:14:33 10° NNE
Cosmos 1536 Rocket 3.8 23:04:31 10° N 23:08:32 70° NNW 23:08:32 70° NNW
Landsat 7 3.9 23:10:33 66° WSW 23:10:34 66° WSW 23:15:19 10° NNW
Cosmos 1850 Rocket 4.4 23:05:48 10° NNW 23:10:58 53° WSW 23:11:34 50° SW
Meteor 2-19 Rocket 4.3 23:11:37 62° S 23:12:47 87° W 23:18:55 10° N
ISS -0.3 23:12:26 10° WNW 23:14:36 16° NNW 23:16:46 10° NNE
Timation 2 Rocket 4.4 23:12:54 10° NW 23:18:35 47° WSW 23:19:31 43° SW
DMSP B5D2-2 4.1 23:18:11 10° N 23:23:23 72° WNW 23:23:41 70° WSW
Cosmos 1339 Rocket 4.3 23:17:34 10° N 23:23:44 83° W 23:24:25 72° SSW
Terra 2.2 23:26:48 61° WNW 23:26:48 61° WNW 23:31:03 10° NNW
Cosmos 1821 Rocket 4.3 23:31:18 51° ENE 23:31:18 51° ENE 23:36:51 10° NNE
Spot 4 4.2 23:34:44 62° NW 23:34:44 62° NW 23:38:53 10° NNW
Cosmos 2369 Rocket 3.8 23:39:18 23° ENE 23:39:18 23° ENE 23:41:49 10° NE
Cosmos 1331 Rocket 4.3 23:40:23 62° NW 23:40:23 62° NW 23:45:08 10° NNE
Iridium 4 Rocket 4.3 23:35:31 10° N 23:40:33 51° ENE 23:40:33 51° ENE
Cosmos 1934 Rocket 4.3 23:46:17 51° ENE 23:46:17 51° ENE 23:51:18 10° NNE
Lacrosse 5 3.7 23:48:56 22° NE 23:48:56 22° NE 23:50:42 10° NE
USA 229 DEB 3.7 23:40:09 10° NW 23:47:14 70° WSW 23:47:41 68° SW
USA 229 3.7 23:40:15 10° NW 23:47:20 70° WSW 23:47:47 69° SW
ASTEX 1 4.1 23:46:49 10° N 23:51:02 51° NW 23:51:02 51° NW
Okean 1 Rocket 4.4 23:54:51 38° NNW 23:54:51 38° NNW 23:57:57 10° N
